When you browse on this site, cookies collect data to enhance your experience and personalize the content and advertising you see.
Visit our Privacy Policy to learn more. By continuing to use the site, you agree to this use of cookies and data.
  • In Österreich
  • Länderverzeichnis
  • Für 7 Tage
  • Wassertemperatur
  • Satellitenkarten
  • Wetterkarte
  • News
  • Widgets
  • user-avatar
    Anmelden

    Stündliche Wetter Sitnickiy Dvor

    Heute, 21 Juli, Sonntag

    Zeit Temperatur Niederschläge Wind Luftdruck Luftfeuchtigkeit
    00:00 +16°C° 0.2 mm 0 m/S 751 mmHg 84%
    01:00 +18°C° 0.2 mm 1 m/S 751 mmHg 85%
    02:00 +16°C° 0.2 mm 1 m/S 751 mmHg 86%
    03:00 +15°C° 0 mm 0 m/S 751 mmHg 86%
    04:00 +15°C° 0 mm 0 m/S 751 mmHg 87%
    05:00 +15°C° 0 mm 0 m/S 751 mmHg 87%
    06:00 +19°C° 0 mm 1 m/S 751 mmHg 83%
    07:00 +21°C° 0 mm 1 m/S 751 mmHg 79%
    08:00 +23°C° 0 mm 1 m/S 751 mmHg 76%
    09:00 +24°C° 0 mm 1 m/S 751 mmHg 70%
    10:00 +25°C° 0 mm 1 m/S 751 mmHg 65%
    11:00 +27°C° 0 mm 1 m/S 752 mmHg 59%
    12:00 +27°C° 0 mm 1 m/S 751 mmHg 56%
    13:00 +28°C° 0 mm 1 m/S 751 mmHg 52%
    14:00 +29°C° 0 mm 1 m/S 751 mmHg 49%
    15:00 +29°C° 0 mm 1 m/S 751 mmHg 51%
    16:00 +28°C° 0 mm 1 m/S 750 mmHg 53%
    17:00 +28°C° 0 mm 1 m/S 750 mmHg 54%
    18:00 +26°C° 0 mm 1 m/S 750 mmHg 60%
    19:00 +25°C° 0 mm 1 m/S 750 mmHg 66%
    20:00 +23°C° 0 mm 1 m/S 750 mmHg 72%
    21:00 +22°C° 0.1 mm 1 m/S 750 mmHg 75%
    22:00 +22°C° 0.1 mm 1 m/S 750 mmHg 78%
    23:00 +21°C° 0.1 mm 1 m/S 750 mmHg 81%

    Morgen, 22 Juli, Montag

    Zeit Temperatur Niederschläge Wind Luftdruck Luftfeuchtigkeit
    00:00 +21°C° 0.7 mm 1 m/S 749 mmHg 85%
    01:00 +20°C° 0.7 mm 1 m/S 749 mmHg 88%
    02:00 +18°C° 0.7 mm 0 m/S 749 mmHg 92%
    03:00 +19°C° 1 mm 1 m/S 749 mmHg 94%
    04:00 +19°C° 1 mm 1 m/S 749 mmHg 95%
    05:00 +18°C° 1 mm 2 m/S 749 mmHg 97%
    06:00 +19°C° 0.3 mm 2 m/S 749 mmHg 96%
    07:00 +19°C° 0.3 mm 2 m/S 749 mmHg 95%
    08:00 +20°C° 0.3 mm 3 m/S 749 mmHg 95%
    09:00 +20°C° 0 mm 3 m/S 749 mmHg 92%
    10:00 +20°C° 0 mm 4 m/S 750 mmHg 90%
    11:00 +21°C° 0 mm 5 m/S 750 mmHg 87%
    12:00 +21°C° 0 mm 5 m/S 750 mmHg 84%
    13:00 +21°C° 0 mm 5 m/S 750 mmHg 81%
    14:00 +21°C° 0 mm 5 m/S 750 mmHg 78%
    15:00 +22°C° 0.1 mm 5 m/S 750 mmHg 76%
    16:00 +22°C° 0.1 mm 5 m/S 750 mmHg 75%
    17:00 +22°C° 0.1 mm 5 m/S 750 mmHg 73%
    18:00 +21°C° 0 mm 5 m/S 750 mmHg 77%
    19:00 +20°C° 0 mm 4 m/S 749 mmHg 82%
    20:00 +19°C° 0 mm 4 m/S 749 mmHg 86%
    21:00 +18°C° 0 mm 4 m/S 750 mmHg 89%
    22:00 +17°C° 0 mm 4 m/S 750 mmHg 91%
    23:00 +15°C° 0 mm 4 m/S 750 mmHg 94%

    übermorgen, 23 Juli, Dienstag

    Zeit Temperatur Niederschläge Wind Luftdruck Luftfeuchtigkeit
    00:00 +15°C° 0 mm 4 m/S 750 mmHg 94%
    01:00 +14°C° 0 mm 4 m/S 750 mmHg 95%
    02:00 +13°C° 0 mm 4 m/S 750 mmHg 95%
    03:00 +14°C° 0 mm 4 m/S 750 mmHg 94%
    04:00 +14°C° 0 mm 4 m/S 750 mmHg 92%
    05:00 +14°C° 0 mm 4 m/S 750 mmHg 90%
    06:00 +14°C° 0 mm 4 m/S 750 mmHg 90%
    07:00 +15°C° 0 mm 4 m/S 750 mmHg 89%
    08:00 +15°C° 0 mm 4 m/S 750 mmHg 88%
    09:00 +17°C° 0 mm 4 m/S 750 mmHg 86%
    10:00 +18°C° 0 mm 4 m/S 750 mmHg 83%
    11:00 +19°C° 0 mm 4 m/S 750 mmHg 81%
    12:00 +19°C° 0.1 mm 4 m/S 750 mmHg 79%
    13:00 +20°C° 0.1 mm 4 m/S 750 mmHg 77%
    14:00 +21°C° 0.1 mm 4 m/S 749 mmHg 75%
    15:00 +21°C° 0.1 mm 4 m/S 749 mmHg 76%
    16:00 +20°C° 0.1 mm 3 m/S 749 mmHg 78%
    17:00 +20°C° 0.1 mm 3 m/S 749 mmHg 80%
    18:00 +20°C° 0.1 mm 2 m/S 749 mmHg 84%
    19:00 +19°C° 0.1 mm 2 m/S 749 mmHg 89%
    20:00 +18°C° 0.1 mm 2 m/S 749 mmHg 94%
    21:00 +17°C° 0 mm 2 m/S 749 mmHg 94%
    22:00 +17°C° 0 mm 2 m/S 749 mmHg 95%
    23:00 +16°C° 0 mm 2 m/S 749 mmHg 96%

    24 Juli, Mittwoch

    Zeit Temperatur Niederschläge Wind Luftdruck Luftfeuchtigkeit
    00:00 +16°C° 0 mm 2 m/S 749 mmHg 96%
    01:00 +16°C° 0 mm 2 m/S 749 mmHg 96%
    02:00 +15°C° 0 mm 2 m/S 749 mmHg 95%
    03:00 +15°C° 0 mm 2 m/S 750 mmHg 96%
    04:00 +15°C° 0 mm 2 m/S 750 mmHg 96%
    05:00 +15°C° 0 mm 2 m/S 750 mmHg 96%
    06:00 +16°C° 0 mm 3 m/S 750 mmHg 92%
    07:00 +18°C° 0 mm 3 m/S 750 mmHg 88%
    08:00 +19°C° 0 mm 3 m/S 750 mmHg 84%
    09:00 +21°C° 0 mm 3 m/S 750 mmHg 77%
    10:00 +24°C° 0 mm 3 m/S 750 mmHg 71%
    11:00 +25°C° 0 mm 4 m/S 751 mmHg 64%
    12:00 +26°C° 0 mm 4 m/S 751 mmHg 63%
    13:00 +26°C° 0 mm 4 m/S 751 mmHg 61%
    14:00 +27°C° 0 mm 4 m/S 750 mmHg 60%
    15:00 +26°C° 0.1 mm 4 m/S 750 mmHg 62%
    16:00 +26°C° 0.1 mm 4 m/S 750 mmHg 63%
    17:00 +26°C° 0.1 mm 4 m/S 751 mmHg 65%
    18:00 +24°C° 0 mm 3 m/S 751 mmHg 71%
    19:00 +22°C° 0 mm 3 m/S 751 mmHg 76%
    20:00 +20°C° 0 mm 2 m/S 751 mmHg 82%
    21:00 +19°C° 0 mm 2 m/S 751 mmHg 84%
    22:00 +18°C° 0 mm 2 m/S 751 mmHg 87%
    23:00 +17°C° 0 mm 2 m/S 752 mmHg 89%

    25 Juli, Donnerstag

    Zeit Temperatur Niederschläge Wind Luftdruck Luftfeuchtigkeit
    00:00 +17°C° 0 mm 2 m/S 752 mmHg 90%
    01:00 +17°C° 0 mm 2 m/S 752 mmHg 91%
    02:00 +16°C° 0 mm 2 m/S 752 mmHg 92%
    03:00 +16°C° 0 mm 2 m/S 752 mmHg 93%
    04:00 +16°C° 0 mm 2 m/S 752 mmHg 93%
    05:00 +16°C° 0 mm 2 m/S 752 mmHg 93%
    06:00 +17°C° 0 mm 2 m/S 752 mmHg 88%
    07:00 +19°C° 0 mm 2 m/S 752 mmHg 82%
    08:00 +21°C° 0 mm 2 m/S 752 mmHg 77%
    09:00 +22°C° 0 mm 3 m/S 753 mmHg 70%
    10:00 +25°C° 0 mm 3 m/S 753 mmHg 64%
    11:00 +26°C° 0 mm 3 m/S 753 mmHg 57%
    12:00 +27°C° 0 mm 4 m/S 753 mmHg 56%
    13:00 +27°C° 0 mm 4 m/S 752 mmHg 54%
    14:00 +27°C° 0 mm 4 m/S 752 mmHg 53%
    15:00 +27°C° 0 mm 3 m/S 752 mmHg 56%
    16:00 +27°C° 0 mm 3 m/S 752 mmHg 59%
    17:00 +27°C° 0 mm 3 m/S 752 mmHg 61%
    18:00 +25°C° 0 mm 3 m/S 752 mmHg 67%
    19:00 +24°C° 0 mm 2 m/S 752 mmHg 73%
    20:00 +21°C° 0 mm 2 m/S 752 mmHg 79%
    21:00 +20°C° 0 mm 2 m/S 752 mmHg 81%
    22:00 +19°C° 0 mm 2 m/S 752 mmHg 83%
    23:00 +19°C° 0 mm 2 m/S 752 mmHg 85%

    26 Juli, Freitag

    Zeit Temperatur Niederschläge Wind Luftdruck Luftfeuchtigkeit
    00:00 +18°C° 0 mm 2 m/S 752 mmHg 87%
    01:00 +18°C° 0 mm 2 m/S 752 mmHg 90%
    02:00 +17°C° 0 mm 2 m/S 752 mmHg 92%
    03:00 +17°C° 0 mm 2 m/S 752 mmHg 93%
    04:00 +17°C° 0 mm 2 m/S 752 mmHg 94%
    05:00 +17°C° 0 mm 2 m/S 752 mmHg 95%
    06:00 +18°C° 0 mm 2 m/S 752 mmHg 88%
    07:00 +20°C° 0 mm 2 m/S 752 mmHg 82%
    08:00 +23°C° 0 mm 2 m/S 752 mmHg 76%
    09:00 +24°C° 0 mm 2 m/S 752 mmHg 69%
    10:00 +26°C° 0 mm 2 m/S 752 mmHg 62%
    11:00 +27°C° 0 mm 2 m/S 752 mmHg 54%
    12:00 +27°C° 0 mm 2 m/S 752 mmHg 53%
    13:00 +28°C° 0 mm 2 m/S 751 mmHg 52%
    14:00 +28°C° 0 mm 2 m/S 751 mmHg 52%
    15:00 +28°C° 0 mm 2 m/S 751 mmHg 54%
    16:00 +28°C° 0 mm 2 m/S 751 mmHg 57%
    17:00 +28°C° 0 mm 2 m/S 751 mmHg 60%
    18:00 +26°C° 0 mm 2 m/S 751 mmHg 67%
    19:00 +24°C° 0 mm 2 m/S 751 mmHg 75%
    20:00 +21°C° 0 mm 2 m/S 751 mmHg 82%
    21:00 +21°C° 0 mm 2 m/S 751 mmHg 85%
    22:00 +20°C° 0 mm 2 m/S 751 mmHg 89%
    23:00 +19°C° 0 mm 2 m/S 751 mmHg 92%
    Mehr zeigen